[Iaude] MPEC V144: 2023 VJ4 [a=1.67,e=0.37,i=10.9,H=26.1]
    mpec at marsden.cfa.harvard.edu 
    mpec at marsden.cfa.harvard.edu
       
    Thu Nov  9 13:38:25 EST 2023
    
    
  
M.P.E.C. 2023-V144                             Issued 2023 November 9, 18:36 UT
     The Minor Planet Electronic Circulars contain information on unusual
         minor planets, routine data on comets and natural satellites,
         and occasional editorial announcements.  They are published
    on behalf of Division F of the International Astronomical Union by the
          Minor Planet Center, Smithsonian Astrophysical Observatory,
                          Cambridge, MA 02138, U.S.A.
			  
             Prepared using the Tamkin Foundation Computer Network
                              MPC at CFA.HARVARD.EDU
            URL https://www.minorplanetcenter.net/    ISSN 1523-6714
                                    2023 VJ4                                    
Observations:
     K23V04J  C2023 11 05.33708 02 37 57.80 +07 29 27.7          21.0 GVEV144G96
     K23V04J  C2023 11 05.34746 02 38 02.91 +07 27 55.7          21.0 GVEV144G96
     K23V04J  C2023 11 07.34164 02 56 00.25 +02 25 04.2          20.5 GVEV144G96
     K23V04J  C2023 11 07.34683 02 56 02.87 +02 24 15.3          21.9 GVEV144G96
     K23V04J  C2023 11 07.35202 02 56 05.51 +02 23 27.4          20.8 GVEV144G96
     K23V04J*1C2023 11 08.31685003 04 51.416-00 04 57.25         20.72GVEV144G96
     K23V04J 1C2023 11 08.32202203 04 53.983-00 05 44.92         21.93GVEV144G96
     K23V04J 1C2023 11 08.32719703 04 56.572-00 06 31.93         20.74GVEV144G96
     K23V04J 1C2023 11 08.33236903 04 59.203-00 07 20.60         21.57GVEV144G96
     K23V04J KC2023 11 08.40777303 05 37.120-00 18 56.30         21.02GVEV144I52
     K23V04J KC2023 11 08.41164903 05 39.100-00 19 31.70         21.09GVEV144I52
     K23V04J KC2023 11 08.41553803 05 41.020-00 20 06.70         20.81GVEV144I52
     K23V04J KC2023 11 08.41940903 05 43.020-00 20 42.30         21.12GVEV144I52
     K23V04J KC2023 11 09.23648303 13 14.023-02 25 46.38         20.81GVEV144I52
     K23V04J KC2023 11 09.24024103 13 15.899-02 26 20.76         20.64GVEV144I52
     K23V04J KC2023 11 09.24398903 13 17.738-02 26 54.42         21.59GVEV144I52
     K23V04J KC2023 11 09.24773903 13 19.650-02 27 29.45         21.52GVEV144I52
Observer details:
G96 Mt. Lemmon Survey.  Observers J. B. Fazekas, D. Rankin.  Measurers B.
    Gray, D. Rankin, F. C. Shelly, E. C. Beshore, D. Fay, J. B. Fazekas, D. C.
    Fuls, A. R. Gibbs, A. D. Grauer, H. Groeller, J. K. Hogan, R. A. Kowalski,
    S. M. Larson, G. J. Leonard, R. L. Seaman, K. W. Wierzchos.  1.5-m
    reflector + 10K CCD.
I52 Steward Observatory, Mt. Lemmon Station.  Observer H. Groeller.  Measurers
    E. C. Beshore, D. Fay, J. B. Fazekas, D. C. Fuls, A. R. Gibbs, A. D.
    Grauer, H. Groeller, J. K. Hogan, R. A. Kowalski, S. M. Larson, G. J.
    Leonard, D. Rankin, R. L. Seaman, F. C. Shelly, K. W. Wierzchos.  1.0-m
    prime focus + CCD.
Orbital elements:
2023 VJ4                                                 Earth MOID = 0.0699 AU
Epoch 2023 Sept. 13.0 TT = JDT 2460200.5                MPC                     
M 328.41905              (2000.0)            P               Q                  
n   0.45758199     Peri.  199.34871     +0.52119109     -0.84488822             
a   1.6678492      Node   219.49504     +0.80586675     +0.53369465             
e   0.3701050      Incl.   10.92271     +0.28096018     +0.03652278             
P   2.15           H   26.18          G   0.15           U   8                  
Residuals in seconds of arc
231105 G96  0.1+  0.5-    231108 G96  0.2-  0.0     231108 I52  0.1-  0.5+
231105 G96  0.1-  0.5+    231108 G96  0.2-  0.7+    231109 I52  0.3+  0.2-
231107 G96  0.0   0.0     231108 G96  0.5+  0.2-    231109 I52  0.1+  0.2-
231107 G96 (0.4+  1.0-)   231108 I52  0.2+  0.7-    231109 I52  0.5-  0.4+
231107 G96 (1.0+  1.0-)   231108 I52  0.4+  0.4-    231109 I52  0.0   0.3-
231108 G96  0.0   0.0     231108 I52  0.5-  0.5+
Ephemeris:
2023 VJ4                 a,e,i = 1.67, 0.37, 11                  q = 1.0506
Date    TT    R. A. (2000) Decl.     Delta      r    Elong.  Phase     V
2023 10 10    00 09 14.2 +37 43 27   0.1555  1.1319   146.6    29.1    23.7
...
2023 10 25    01 10 33.8 +28 35 39   0.09624 1.0856   160.2    18.1    22.2
...
2023 11 02    02 09 01.4 +15 18 42   0.07594 1.0682   175.7     4.0    21.1
...
2023 11 08    03 01 59.3 +00 44 59   0.07040 1.0589   164.1    14.8    21.4
2023 11 09    03 11 02.3 -01 48 25   0.07046 1.0576   161.1    17.7    21.5
2023 11 10    03 20 02.9 -04 19 58   0.07080 1.0565   158.1    20.5    21.6
...
2023 11 16    04 11 13.3 -17 39 39   0.07819 1.0518   141.9    35.5    22.2
...
2023 11 24    05 05 48.5 -28 34 31   0.09805 1.0509   128.2    47.6    23.0
...
2023 12 09    06 04 59.9 -35 14 40   0.1469  1.0662   120.0    53.1    24.1
A. U. Tomatic                (C) Copyright 2023 MPC           M.P.E.C. 2023-V144
    
    
More information about the Iaude
mailing list